Weather History for Cahokia, IL

Change the Weather History Date:

Saturday, January 19, 2013

  Actual Average Record
Temperature  
Mean Temperature 52 °F -  
Max Temperature 64 °F 39 °F 75 °F (1952)
Min Temperature 41 °F 22 °F -5 °F (1943)
Degree Days  
Heating Degree Days 12    
Growing Degree Days 2 (Base 50)    
Moisture  
Dew Point 29 °F    
Average Humidity 45    
Maximum Humidity 58    
Minimum Humidity 29    
Precipitation  
Precipitation 0.00 in - - ()
Sea Level Pressure  
Sea Level Pressure 30.06 in    
Wind  
Wind Speed 10 mph (SW)    
Max Wind Speed 16 mph    
Max Gust Speed 23 mph    
Visibility 10 miles    
Events      
Averages and records for this station are not official NWS values.
T = Trace of Precipitation, MM = Missing Value Source: NWS Daily Summary

Daily Weather History Graph

Daily Weather History Graph

Search for Another Location

Airport:

Trip Planner

Search our weather history database for the weather conditions in past years. The results will help you decide how hot, cold, wet, or windy it might be!

Date:

Astronomy

Jan. 19, 2013 Rise Set
Actual Time 7:15 AM CST 5:08 PM CST
Civil Twilight 6:46 AM CST 5:37 PM CST
Nautical Twilight 6:13 AM CST 6:09 PM CST
Astronomical Twilight 5:42 AM CST 6:41 PM CST
Moon 11:33 AM CST (1/19) 12:50 AM CST (1/19)
Length of Visible Light 10h 50m
Length of Day
9h 53m
First Quarter, 57% of the Moon is Illuminated
Jan 19
First Quarter
Jan 26
Full
Feb 3
Last Quarter
Feb 10
New
Feb 17
First Quarter

Hourly Weather History & Observations

Time (CST) Temp. Windchill Dew Point Humidity Pressure Visibility Wind Dir Wind Speed Gust Speed Precip Events Conditions
12:53 AM 42.1 °F 36.1 °F 28.0 °F 58% 30.16 in 10.0 mi SSW 10.4 mph 17.3 mph N/A   Clear
1:53 AM 43.0 °F 37.7 °F 28.0 °F 56% 30.16 in 10.0 mi SSW 9.2 mph 17.3 mph N/A   Clear
2:53 AM 43.0 °F 36.8 °F 27.0 °F 53% 30.15 in 10.0 mi SSW 11.5 mph 20.7 mph N/A   Clear
3:53 AM 42.1 °F 37.1 °F 27.0 °F 55% 30.13 in 10.0 mi SSW 8.1 mph 18.4 mph N/A   Clear
4:53 AM 42.1 °F 36.6 °F 26.1 °F 53% 30.12 in 10.0 mi SSW 9.2 mph 18.4 mph N/A   Clear
5:53 AM 41.0 °F 34.7 °F 26.1 °F 55% 30.10 in 10.0 mi SSW 10.4 mph 19.6 mph N/A   Clear
6:53 AM 42.1 °F 36.6 °F 26.1 °F 53% 30.09 in 10.0 mi SSW 9.2 mph - N/A   Clear
7:53 AM 43.0 °F 36.4 °F 26.1 °F 51% 30.09 in 10.0 mi SSW 12.7 mph 19.6 mph N/A   Clear
8:53 AM 45.0 °F 39.7 °F 27.0 °F 49% 30.09 in 10.0 mi SSW 10.4 mph 20.7 mph N/A   Clear
9:53 AM 48.0 °F - 28.0 °F 46% 30.08 in 10.0 mi SSW 11.5 mph 23.0 mph N/A   Clear
10:53 AM 53.1 °F - 30.0 °F 41% 30.03 in 10.0 mi South 12.7 mph 18.4 mph N/A   Clear
11:53 AM 57.0 °F - 32.0 °F 39% 29.98 in 10.0 mi SSW 9.2 mph 19.6 mph N/A   Clear
12:53 PM 62.1 °F - 34.0 °F 35% 29.94 in 10.0 mi SW 9.2 mph 19.6 mph N/A   Clear
1:53 PM 64.9 °F - 33.1 °F 31% 29.92 in 10.0 mi WSW 11.5 mph 21.9 mph N/A   Clear
3:53 PM 64.9 °F - 32.0 °F 29% 29.92 in 10.0 mi West 12.7 mph 21.9 mph N/A   Clear
4:53 PM 62.1 °F - 30.0 °F 30% 29.95 in 10.0 mi West 10.4 mph 18.4 mph N/A   Clear
5:53 PM 57.0 °F - 30.0 °F 36% 29.98 in 10.0 mi WSW 5.8 mph - N/A   Clear
6:53 PM 55.9 °F - 30.0 °F 37% 30.01 in 10.0 mi West 6.9 mph - N/A   Clear
7:53 PM 55.0 °F - 30.9 °F 40% 30.04 in 10.0 mi West 10.4 mph - N/A   Clear
8:53 PM 54.0 °F - 30.9 °F 41% 30.06 in 10.0 mi West 6.9 mph - N/A   Clear
9:53 PM 53.1 °F - 32.0 °F 45% 30.08 in 10.0 mi WNW 12.7 mph - N/A   Clear
10:53 PM 48.9 °F - 32.0 °F 52% 30.11 in 10.0 mi WNW 15.0 mph - N/A   Clear
11:53 PM 48.0 °F - 30.9 °F 52% 30.13 in 10.0 mi WNW 16.1 mph 20.7 mph N/A   Clear